Radiation Dose at Monitoring Post of Fukushima Daini Nuclear Power Station
Date,Time,MP-1(microSv/h),MP-2(microSv/h),MP-3(microSv/h),MP-4(microSv/h),MP-5(microSv/h),MP-6(microSv/h),MP-7(microSv/h),Wind Direction,Wind Velocity(m/s),Rain
2019/06/30,00:00,0.186,0.168,0.277,0.260,0.263,0.140,0.089,north-northwest,5.4,No
2019/06/30,00:10,0.184,0.169,0.279,0.259,0.267,0.138,0.088,north-northwest,6.2,No
2019/06/30,00:20,0.185,0.168,0.275,0.260,0.261,0.139,0.088,north-northwest,6.0,No
2019/06/30,00:30,0.185,0.169,0.278,0.261,0.264,0.138,0.088,north-northwest,5.2,No
2019/06/30,00:40,0.184,0.167,0.276,0.259,0.262,0.137,0.088,north-northwest,4.9,No
2019/06/30,00:50,0.185,0.168,0.278,0.261,0.261,0.138,0.087,north-northwest,4.6,No
2019/06/30,01:00,0.184,0.168,0.277,0.258,0.265,0.137,0.088,north-northwest,4.8,No
2019/06/30,01:10,0.184,0.167,0.277,0.260,0.261,0.138,0.088,north-northwest,3.9,No
2019/06/30,01:20,0.183,0.167,0.277,0.260,0.263,0.137,0.087,north-northwest,4.5,No
2019/06/30,01:30,0.184,0.167,0.277,0.259,0.260,0.137,0.087,north-northwest,3.6,No
2019/06/30,01:40,0.183,0.167,0.277,0.261,0.263,0.137,0.086,north-northwest,4.0,No
2019/06/30,01:50,0.183,0.167,0.277,0.259,0.261,0.137,0.087,north,4.4,No
2019/06/30,02:00,0.184,0.167,0.277,0.262,0.263,0.138,0.086,north,3.6,No
2019/06/30,02:10,0.183,0.166,0.276,0.259,0.263,0.137,0.087,north,2.7,No
2019/06/30,02:20,0.185,0.167,0.278,0.261,0.261,0.138,0.087,north-northwest,1.9,No
2019/06/30,02:30,0.182,0.167,0.278,0.261,0.264,0.138,0.086,north,2.1,No
2019/06/30,02:40,0.184,0.167,0.278,0.260,0.261,0.137,0.086,north,3.4,No
2019/06/30,02:50,0.184,0.167,0.277,0.262,0.262,0.138,0.087,north-northwest,3.8,No
2019/06/30,03:00,0.183,0.169,0.278,0.261,0.265,0.139,0.088,north-northwest,3.7,No
2019/06/30,03:10,0.187,0.169,0.280,0.264,0.264,0.140,0.088,north-northwest,3.5,No
2019/06/30,03:20,0.186,0.170,0.280,0.263,0.266,0.140,0.090,northwest,2.6,No
2019/06/30,03:30,0.187,0.170,0.281,0.265,0.264,0.140,0.089,north-northwest,2.2,Yes
2019/06/30,03:40,0.187,0.172,0.280,0.262,0.268,0.142,0.090,north-northwest,4.3,Yes
2019/06/30,03:50,0.188,0.171,0.284,0.266,0.266,0.142,0.091,north-northwest,4.1,Yes
2019/06/30,04:00,0.188,0.171,0.280,0.265,0.267,0.142,0.092,north,3.9,No
2019/06/30,04:10,0.188,0.172,0.283,0.264,0.267,0.143,0.092,north-northwest,3.3,No
2019/06/30,04:20,0.188,0.172,0.280,0.265,0.266,0.143,0.091,north,3.0,No
2019/06/30,04:30,0.187,0.171,0.282,0.263,0.266,0.142,0.092,north-northwest,2.1,No
2019/06/30,04:40,0.188,0.171,0.282,0.266,0.265,0.142,0.090,north,2.6,Yes
2019/06/30,04:50,0.187,0.171,0.279,0.263,0.268,0.142,0.092,north,1.7,Yes
2019/06/30,05:00,0.188,0.171,0.282,0.265,0.266,0.142,0.090,north-northeast,0.9,No
2019/06/30,05:10,0.187,0.170,0.281,0.264,0.269,0.143,0.092,north,1.2,No
2019/06/30,05:20,0.188,0.171,0.284,0.267,0.267,0.142,0.092,north-northwest,1.2,Yes
2019/06/30,05:30,0.188,0.173,0.280,0.265,0.266,0.144,0.093,north-northwest,1.2,Yes
2019/06/30,05:40,0.189,0.174,0.285,0.266,0.269,0.145,0.094,northeast,1.4,Yes
2019/06/30,05:50,0.192,0.175,0.284,0.268,0.267,0.146,0.095,northeast,6.3,Yes
2019/06/30,06:00,0.191,0.176,0.288,0.267,0.272,0.148,0.098,-,CALM,Yes
2019/06/30,06:10,0.194,0.179,0.285,0.270,0.270,0.149,0.098,north-northeast,3.2,Yes
2019/06/30,06:20,0.195,0.180,0.287,0.268,0.275,0.151,0.101,-,CALM,Yes
2019/06/30,06:30,0.197,0.182,0.288,0.273,0.274,0.153,0.102,-,CALM,Yes
2019/06/30,06:40,0.199,0.183,0.290,0.271,0.276,0.154,0.104,north,1.3,Yes
2019/06/30,06:50,0.199,0.186,0.291,0.274,0.278,0.156,0.105,north,2.6,Yes
2019/06/30,07:00,0.199,0.185,0.290,0.273,0.277,0.155,0.106,north,2.1,Yes
2019/06/30,07:10,0.198,0.184,0.292,0.273,0.280,0.156,0.106,north,4.1,Yes
2019/06/30,07:20,0.198,0.183,0.290,0.273,0.275,0.155,0.106,north-northeast,3.1,Yes
2019/06/30,07:30,0.196,0.184,0.293,0.273,0.278,0.155,0.107,north,3.4,Yes
2019/06/30,07:40,0.198,0.185,0.289,0.274,0.278,0.158,0.107,north,6.3,Yes
2019/06/30,07:50,0.197,0.187,0.295,0.272,0.281,0.157,0.109,north,4.6,Yes
2019/06/30,08:00,0.202,0.191,0.293,0.277,0.282,0.162,0.111,west-northwest,6.2,Yes
2019/06/30,08:10,0.202,0.194,0.297,0.275,0.284,0.163,0.114,north,5.6,Yes
2019/06/30,08:20,0.204,0.194,0.295,0.278,0.287,0.166,0.114,-,CALM,Yes
2019/06/30,08:30,0.202,0.196,0.297,0.274,0.286,0.165,0.117,-,CALM,Yes
2019/06/30,08:40,0.202,0.195,0.297,0.275,0.289,0.165,0.117,west-northwest,3.0,Yes
2019/06/30,08:50,0.204,0.198,0.298,0.277,0.286,0.166,0.116,north,2.9,Yes
2019/06/30,09:00,0.203,0.196,0.299,0.278,0.290,0.165,0.115,north,3.3,Yes
2019/06/30,09:10,0.205,0.196,0.300,0.280,0.286,0.165,0.116,north-northeast,4.5,Yes
2019/06/30,09:20,0.202,0.193,0.298,0.276,0.287,0.163,0.114,north,4.0,Yes
2019/06/30,09:30,0.202,0.193,0.296,0.277,0.285,0.162,0.114,north,3.8,Yes
2019/06/30,09:40,0.200,0.190,0.295,0.273,0.284,0.161,0.111,north,4.1,Yes
2019/06/30,09:50,0.199,0.189,0.294,0.276,0.282,0.158,0.110,north-northwest,4.3,Yes
2019/06/30,10:00,0.197,0.186,0.292,0.272,0.278,0.158,0.106,northwest,3.3,Yes
2019/06/30,10:10,0.195,0.184,0.287,0.272,0.278,0.152,0.104,north-northwest,3.9,Yes
2019/06/30,10:20,0.194,0.183,0.289,0.270,0.275,0.151,0.102,north-northwest,3.3,Yes
2019/06/30,10:30,0.193,0.180,0.286,0.268,0.274,0.149,0.100,north-northwest,2.0,Yes
2019/06/30,10:40,0.193,0.181,0.287,0.271,0.275,0.148,0.101,north-northwest,3.6,Yes
2019/06/30,10:50,0.191,0.180,0.286,0.267,0.272,0.149,0.100,north-northwest,3.2,Yes
2019/06/30,11:00,0.194,0.181,0.286,0.267,0.275,0.148,0.100,northwest,3.5,Yes
2019/06/30,11:10,0.194,0.182,0.287,0.268,0.274,0.152,0.102,north-northeast,2.6,Yes
2019/06/30,11:20,0.195,0.184,0.286,0.268,0.276,0.153,0.105,north-northwest,4.4,Yes
2019/06/30,11:30,0.197,0.184,0.287,0.271,0.277,0.154,0.107,north-northwest,4.3,Yes
2019/06/30,11:40,0.196,0.186,0.287,0.266,0.277,0.156,0.107,north-northwest,4.2,Yes
2019/06/30,11:50,0.197,0.187,0.289,0.270,0.281,0.156,0.108,north-northeast,2.2,Yes
2019/06/30,12:00,0.197,0.188,0.288,0.268,0.277,0.157,0.109,north,3.5,Yes
2019/06/30,12:10,0.199,0.189,0.289,0.270,0.280,0.158,0.111,north-northwest,3.5,Yes
2019/06/30,12:20,0.198,0.189,0.287,0.267,0.280,0.157,0.112,east,4.4,Yes
2019/06/30,12:30,0.193,0.188,0.285,0.266,0.277,0.158,0.111,-,CALM,Yes
2019/06/30,12:40,0.186,0.186,0.284,0.267,0.279,0.156,0.110,north-northwest,4.8,Yes
2019/06/30,12:50,0.185,0.186,0.282,0.266,0.275,0.157,0.110,north-northwest,3.9,Yes
2019/06/30,13:00,0.185,0.185,0.285,0.268,0.280,0.158,0.111,north-northwest,3.8,Yes
2019/06/30,13:10,0.182,0.187,0.283,0.269,0.280,0.156,0.109,north-northwest,3.3,Yes
2019/06/30,13:20,0.183,0.185,0.287,0.271,0.279,0.156,0.109,north-northwest,3.3,Yes
2019/06/30,13:30,0.182,0.183,0.283,0.269,0.278,0.153,0.107,northwest,3.6,Yes
2019/06/30,13:40,0.183,0.183,0.282,0.266,0.275,0.150,0.104,northwest,2.8,Yes
2019/06/30,13:50,0.182,0.178,0.282,0.268,0.274,0.149,0.102,northwest,3.2,No
2019/06/30,14:00,0.181,0.178,0.278,0.263,0.274,0.145,0.099,north-northwest,2.8,No
2019/06/30,14:10,0.182,0.175,0.279,0.262,0.269,0.144,0.097,north-northwest,3.0,No
2019/06/30,14:20,0.181,0.173,0.276,0.262,0.270,0.143,0.096,northwest,2.2,No
2019/06/30,14:30,0.180,0.171,0.275,0.259,0.266,0.141,0.094,north-northwest,3.0,No
2019/06/30,14:40,0.182,0.168,0.275,0.259,0.263,0.138,0.093,northwest,2.9,No
2019/06/30,14:50,0.180,0.169,0.274,0.260,0.267,0.138,0.090,north-northwest,2.8,No
2019/06/30,15:00,0.180,0.168,0.275,0.256,0.264,0.137,0.089,north-northwest,3.0,No
2019/06/30,15:10,0.181,0.165,0.274,0.258,0.262,0.135,0.088,north-northwest,2.3,No
2019/06/30,15:20,0.180,0.166,0.270,0.259,0.260,0.135,0.088,northwest,2.6,No
2019/06/30,15:30,0.179,0.166,0.272,0.256,0.263,0.135,0.088,north,1.7,No
2019/06/30,15:40,0.181,0.166,0.272,0.258,0.263,0.135,0.086,north-northwest,2.4,No
2019/06/30,15:50,0.180,0.165,0.271,0.257,0.259,0.134,0.087,north,2.9,No
2019/06/30,16:00,0.178,0.165,0.272,0.255,0.260,0.133,0.087,north,2.8,No
2019/06/30,16:10,0.180,0.165,0.273,0.256,0.261,0.135,0.086,north,4.1,No
2019/06/30,16:20,0.180,0.163,0.270,0.256,0.261,0.134,0.086,north,4.0,No
2019/06/30,16:30,0.180,0.166,0.271,0.255,0.258,0.134,0.086,north,4.3,No
2019/06/30,16:40,0.180,0.164,0.273,0.255,0.262,0.134,0.086,north,3.6,No
2019/06/30,16:50,0.181,0.164,0.270,0.258,0.261,0.134,0.085,north,3.7,No
2019/06/30,17:00,0.179,0.164,0.272,0.256,0.257,0.134,0.086,north,3.5,No
2019/06/30,17:10,0.181,0.164,0.273,0.256,0.260,0.134,0.085,north,3.8,No
2019/06/30,17:20,0.181,0.164,0.270,0.258,0.262,0.134,0.086,north,4.0,No
2019/06/30,17:30,0.180,0.165,0.274,0.256,0.260,0.134,0.086,north,4.6,No
2019/06/30,17:40,0.181,0.164,0.272,0.256,0.260,0.134,0.086,north,4.9,No
2019/06/30,17:50,0.180,0.165,0.272,0.259,0.262,0.135,0.086,north,5.2,No
2019/06/30,18:00,0.182,0.165,0.273,0.256,0.259,0.134,0.086,north,5.4,No
2019/06/30,18:10,0.181,0.164,0.272,0.259,0.262,0.134,0.085,north,5.6,No
2019/06/30,18:20,0.181,0.164,0.273,0.258,0.263,0.135,0.086,north,4.8,No
2019/06/30,18:30,0.182,0.163,0.273,0.256,0.257,0.134,0.085,north,3.9,No
2019/06/30,18:40,0.180,0.165,0.272,0.260,0.263,0.135,0.086,north,5.3,No
2019/06/30,18:50,0.182,0.165,0.274,0.258,0.262,0.135,0.086,north,4.3,No
2019/06/30,19:00,0.181,0.164,0.272,0.257,0.259,0.134,0.086,north-northwest,2.7,No
2019/06/30,19:10,0.180,0.164,0.273,0.259,0.262,0.135,0.086,north,2.5,No
2019/06/30,19:20,0.182,0.164,0.274,0.256,0.260,0.135,0.085,north,2.8,No
2019/06/30,19:30,0.180,0.164,0.273,0.259,0.261,0.135,0.085,north,2.8,No
2019/06/30,19:40,0.183,0.165,0.275,0.257,0.261,0.136,0.086,north,2.4,No
2019/06/30,19:50,0.181,0.164,0.271,0.258,0.260,0.134,0.086,north,3.1,No
2019/06/30,20:00,0.181,0.164,0.274,0.259,0.263,0.136,0.086,north-northwest,2.8,No
2019/06/30,20:10,0.182,0.165,0.273,0.257,0.261,0.134,0.086,north-northwest,2.5,No
2019/06/30,20:20,0.181,0.165,0.275,0.260,0.262,0.134,0.087,north,1.8,No
2019/06/30,20:30,0.183,0.164,0.274,0.256,0.263,0.135,0.086,north,1.1,No
2019/06/30,20:40,0.181,0.166,0.273,0.258,0.259,0.135,0.085,-,CALM,No
2019/06/30,20:50,0.181,0.164,0.275,0.258,0.263,0.135,0.086,north,0.7,No
2019/06/30,21:00,0.182,0.164,0.272,0.257,0.260,0.136,0.085,-,CALM,No
2019/06/30,21:10,0.181,0.164,0.274,0.258,0.262,0.134,0.087,-,CALM,No
2019/06/30,21:20,0.182,0.165,0.274,0.256,0.262,0.135,0.085,-,CALM,No
2019/06/30,21:30,0.182,0.164,0.273,0.258,0.258,0.135,0.086,north-northwest,0.7,No
2019/06/30,21:40,0.181,0.165,0.275,0.258,0.263,0.135,0.086,-,CALM,No
2019/06/30,21:50,0.182,0.165,0.273,0.258,0.261,0.136,0.086,-,CALM,No
2019/06/30,22:00,0.180,0.164,0.277,0.260,0.260,0.135,0.085,-,CALM,No
2019/06/30,22:10,0.182,0.165,0.274,0.257,0.264,0.136,0.086,-,CALM,No
2019/06/30,22:20,0.182,0.163,0.273,0.259,0.260,0.136,0.086,-,CALM,No
2019/06/30,22:30,0.180,0.165,0.275,0.258,0.262,0.136,0.086,north-northwest,0.6,No
2019/06/30,22:40,0.182,0.166,0.272,0.258,0.262,0.136,0.085,east-northeast,0.6,No
2019/06/30,22:50,0.182,0.163,0.275,0.259,0.260,0.135,0.086,north-northeast,0.7,No
2019/06/30,23:00,0.181,0.165,0.274,0.257,0.263,0.134,0.086,-,CALM,No
2019/06/30,23:10,0.182,0.163,0.275,0.259,0.260,0.136,0.086,-,CALM,No
2019/06/30,23:20,0.181,0.165,0.274,0.258,0.261,0.135,0.085,northeast,0.6,No
2019/06/30,23:30,0.182,0.165,0.272,0.258,0.262,0.136,0.086,north-northeast,1.0,No
2019/06/30,23:40,0.181,0.164,0.275,0.259,0.260,0.137,0.085,northeast,0.8,No
2019/06/30,23:50,0.182,0.165,0.273,0.257,0.263,0.136,0.086,-,CALM,No
